Date String (YYYY-MM-DD hh:mm:ss) UTC,Instrument flags,Ambient pressure (hPa),Sample flow (lpm),Bypass flow (lpm),Sample temperature (°C),Ambient temperature (°C),ASC tube jacket temperature (°C),LED temperature (°C),Box temperature (°C),Sample RH (%),Span deviation,Mass concentration (μg/m³),Mass concentration (μg/m³),Mass concentration (μg/m³)
DateTimeUTC,F1_M11,P_M11,Q1_M11,Q2_M11,T1_M11,T2_M11,T3_M11,T4_M11,T5_M11,U1_M11,ZSPAN_M11,X0_M11,X2_M11,X1_M11
2023-01-29 06:00:00,,0824.4,5.00,0.00,22.2,21.9,00.0,31.0,24.0,07.2,0000.0,0004.80,0003.80,0003.65
2023-01-29 06:01:00,,0824.4,5.00,0.00,22.3,22.6,00.0,31.0,24.3,07.2,0000.0,0004.77,0003.80,0003.65
2023-01-29 06:02:00,,0824.6,4.99,0.00,22.3,22.3,00.0,31.1,24.2,07.1,0000.0,0004.76,0003.80,0003.64
2023-01-29 06:03:00,,0824.5,4.99,0.00,22.3,21.7,00.0,31.1,24.1,07.1,0000.0,0004.75,0003.80,0003.64
2023-01-29 06:04:00,,0824.5,5.02,0.00,22.3,21.3,00.0,31.1,23.9,07.1,0000.0,0004.68,0003.78,0003.62
2023-01-29 06:05:00,,0824.4,5.00,0.00,22.2,21.0,00.0,31.1,23.8,07.1,0000.0,0004.55,0003.76,0003.60
2023-01-29 06:06:00,,0824.3,5.01,0.00,22.2,20.7,00.0,31.1,23.7,07.1,0000.0,0004.46,0003.73,0003.58
2023-01-29 06:07:00,,0824.3,5.00,0.00,22.1,20.4,00.0,31.1,23.7,07.2,0000.0,0004.47,0003.72,0003.56
2023-01-29 06:08:00,,0824.2,5.01,0.00,22.1,20.4,00.0,31.1,23.6,07.2,0000.0,0004.46,0003.71,0003.54
2023-01-29 06:09:00,,0824.3,5.01,0.00,22.1,21.2,00.0,31.0,23.9,07.1,0000.0,0004.54,0003.72,0003.53
2023-01-29 06:10:00,,0824.3,5.00,0.00,22.2,22.2,00.0,31.0,24.1,07.1,0000.0,0004.55,0003.71,0003.52
2023-01-29 06:11:00,,0824.3,4.99,0.00,22.3,22.6,00.0,31.1,24.3,07.0,0000.0,0004.52,0003.69,0003.51
2023-01-29 06:12:00,,0824.3,4.99,0.00,22.3,22.0,00.0,31.1,24.2,07.0,0000.0,0004.49,0003.68,0003.50
2023-01-29 06:13:00,,0824.3,5.00,0.00,22.3,21.5,00.0,31.1,24.0,07.0,0000.0,0004.50,0003.68,0003.50
2023-01-29 06:14:00,,0824.2,4.97,0.00,22.3,21.1,00.0,31.1,23.9,07.0,0000.0,0004.50,0003.69,0003.52
2023-01-29 06:15:00,,0824.4,5.02,0.00,22.2,20.8,00.0,31.1,23.8,07.0,0000.0,0004.49,0003.70,0003.53
2023-01-29 06:16:00,,0824.2,5.02,0.00,22.2,20.5,00.0,31.1,23.7,07.1,0000.0,0004.46,0003.70,0003.54
2023-01-29 06:17:00,,0824.2,4.99,0.00,22.1,20.4,00.0,31.1,23.6,07.1,0000.0,0004.46,0003.70,0003.54
2023-01-29 06:18:00,,0824.3,5.00,0.00,22.1,20.7,00.0,31.0,23.7,07.1,0000.0,0004.43,0003.69,0003.54
2023-01-29 06:19:00,,0824.3,5.01,0.00,22.2,21.8,00.0,31.0,24.0,07.1,0000.0,0004.47,0003.70,0003.54
2023-01-29 06:20:00,,0824.2,5.00,0.00,22.3,22.6,00.0,31.0,24.3,07.0,0000.0,0005.03,0003.68,0003.54
2023-01-29 06:21:00,,0824.2,4.99,0.00,22.4,22.5,00.0,31.1,24.3,07.0,0000.0,0005.16,0003.69,0003.55
2023-01-29 06:22:00,,0824.2,5.00,0.00,22.4,22.0,00.0,31.1,24.2,07.0,0000.0,0005.20,0003.69,0003.56
2023-01-29 06:23:00,,0824.2,5.01,0.00,22.3,21.5,00.0,31.1,24.0,07.0,0000.0,0005.23,0003.70,0003.56
2023-01-29 06:24:00,,0824.1,5.00,0.00,22.3,21.1,00.0,31.1,23.9,07.0,0000.0,0005.22,0003.70,0003.57
2023-01-29 06:25:00,,0824.1,5.00,0.00,22.3,20.9,00.0,31.1,23.9,07.0,0000.0,0005.22,0003.70,0003.57
2023-01-29 06:26:00,,0824.1,5.03,0.00,22.2,20.7,00.0,31.1,23.8,07.0,0000.0,0005.20,0003.70,0003.57
2023-01-29 06:27:00,,0824.1,5.00,0.00,22.2,20.6,00.0,31.1,23.7,07.0,0000.0,0005.20,0003.70,0003.57
2023-01-29 06:28:00,,0824.1,5.00,0.00,22.1,20.4,00.0,31.1,23.7,07.1,0000.0,0005.25,0003.72,0003.59
2023-01-29 06:29:00,,0824.1,5.00,0.00,22.1,20.3,00.0,31.1,23.7,07.1,0000.0,0005.29,0003.73,0003.60
2023-01-29 06:30:00,,0824.0,5.00,0.00,22.1,21.0,00.0,31.1,23.8,07.1,0000.0,0005.33,0003.74,0003.61
2023-01-29 06:31:00,,0824.1,4.99,0.00,22.2,22.0,00.0,31.0,24.1,07.0,0000.0,0004.78,0003.75,0003.63
2023-01-29 06:32:00,,0824.1,5.01,0.00,22.4,22.8,00.0,31.1,24.3,07.0,0000.0,0004.68,0003.78,0003.64
2023-01-29 06:33:00,,0824.0,4.98,0.00,22.4,22.5,00.0,31.1,24.3,07.0,0000.0,0004.63,0003.81,0003.66
2023-01-29 06:34:00,,0824.1,5.01,0.00,22.4,21.9,00.0,31.1,24.2,07.0,0000.0,0004.64,0003.81,0003.66
2023-01-29 06:35:00,,0824.1,5.00,0.00,22.4,21.5,00.0,31.2,24.1,07.0,0000.0,0004.66,0003.82,0003.67
2023-01-29 06:36:00,,0824.1,4.99,0.00,22.3,21.2,00.0,31.2,24.0,07.0,0000.0,0004.75,0003.85,0003.68
2023-01-29 06:37:00,,0824.0,5.00,0.00,22.3,20.9,00.0,31.2,23.9,07.0,0000.0,0004.90,0003.89,0003.71
2023-01-29 06:38:00,,0824.0,5.03,0.00,22.3,20.8,00.0,31.2,23.9,07.0,0000.0,0004.99,0003.92,0003.73
2023-01-29 06:39:00,,0824.0,4.98,0.00,22.2,20.6,00.0,31.1,23.8,07.0,0000.0,0005.00,0003.93,0003.75
2023-01-29 06:40:00,,0824.0,5.03,0.00,22.2,20.5,00.0,31.1,23.8,07.0,0000.0,0005.04,0003.94,0003.75
2023-01-29 06:41:00,,0824.0,5.01,0.00,22.2,20.9,00.0,31.1,23.9,07.0,0000.0,0005.18,0003.96,0003.77
2023-01-29 06:42:00,,0824.0,5.00,0.00,22.3,21.9,00.0,31.1,24.2,07.0,0000.0,0005.19,0003.97,0003.78
2023-01-29 06:43:00,,0824.0,5.00,0.00,22.4,22.8,00.0,31.1,24.4,06.9,0000.0,0005.15,0003.97,0003.80
2023-01-29 06:44:00,,0824.1,4.99,0.00,22.5,22.6,00.0,31.1,24.4,06.9,-000.1,0005.19,0003.97,0003.80
2023-01-29 06:45:00,,0824.1,5.00,0.00,22.5,22.1,00.0,31.2,24.3,06.9,-000.4,0005.40,0004.01,0003.82
2023-01-29 06:46:00,,0824.0,5.01,0.00,22.4,21.6,00.0,31.2,24.2,06.9,-000.5,0005.38,0004.02,0003.83
2023-01-29 06:47:00,,0824.1,5.00,0.00,22.4,21.3,00.0,31.2,24.1,06.9,-000.1,0005.30,0004.00,0003.83
2023-01-29 06:48:00,,0824.0,5.00,0.00,22.4,21.0,00.0,31.2,24.0,07.0,0000.2,0005.29,0004.00,0003.83
2023-01-29 06:49:00,,0824.1,5.01,0.00,22.3,20.9,00.0,31.2,24.0,07.0,0000.0,0005.32,0004.01,0003.83
2023-01-29 06:50:00,,0824.0,5.01,0.00,22.3,20.7,00.0,31.2,23.9,07.0,0000.0,0005.37,0004.02,0003.82
2023-01-29 06:51:00,,0824.0,4.99,0.00,22.3,20.6,00.0,31.2,23.8,07.0,0000.0,0005.51,0004.02,0003.84
2023-01-29 06:52:00,,0824.0,5.00,0.00,22.2,20.5,00.0,31.2,23.8,07.0,0000.0,0005.77,0004.03,0003.85
2023-01-29 06:53:00,,0823.9,5.00,0.00,22.2,21.1,00.0,31.1,24.0,07.0,0000.0,0005.83,0004.04,0003.85
2023-01-29 06:54:00,,0824.0,5.02,0.00,22.3,22.2,00.0,31.1,24.2,07.0,0000.0,0005.83,0004.04,0003.86
2023-01-29 06:55:00,,0824.0,5.00,0.00,22.5,22.8,00.0,31.1,24.4,06.9,0000.0,0005.73,0004.03,0003.86
2023-01-29 06:56:00,,0824.0,4.99,0.00,22.5,22.3,00.0,31.2,24.4,06.9,0000.0,0005.55,0004.02,0003.87
2023-01-29 06:57:00,,0824.0,5.01,0.00,22.5,21.8,00.0,31.2,24.2,06.9,0000.0,0005.59,0004.04,0003.89
2023-01-29 06:58:00,,0823.9,4.99,0.00,22.4,21.5,00.0,31.2,24.1,06.9,0000.0,0005.69,0004.06,0003.89
2023-01-29 06:59:00,,0824.0,5.00,0.00,22.4,21.1,00.0,31.2,24.0,06.9,0000.0,0005.65,0004.06,0003.90
